State College, PA

2:42 PM EDT on October 20, 2017 (GMT -0400)
University Park

Weather History for KUNV - March, 2014

Change the Weather History Date:

Tuesday, March 4, 2014

  Actual Average Record
Temperature  
Mean Temperature 19 °F -  
Max Temperature 32 °F 42 °F 69 °F (1946)
Min Temperature 6 °F 25 °F 1 °F (1943)
Degree Days  
Heating Degree Days 46    
Moisture  
Dew Point -5 °F    
Average Humidity 41    
Maximum Humidity 65    
Minimum Humidity 15    
Precipitation  
Precipitation 0.00 in - - ()
Sea Level Pressure  
Sea Level Pressure 30.24 in    
Wind  
Wind Speed 1 mph (WSW)    
Max Wind Speed 9 mph    
Max Gust Speed -    
Visibility 10 miles    
Events      
Averages and records for this station are not official NWS values.
T = Trace of Precipitation, MM = Missing Value Source: NWS Daily Summary

Daily Weather History Graph

Daily Weather History Graph

Search for Another Location

Airport or City:

Trip Planner

Search our weather history database for the weather conditions in past years. The results will help you decide how hot, cold, wet, or windy it might be!

Date:

Astronomy

Mar. 04, 2014 Rise Set
Actual Time 6:40 AM EST 6:05 PM EST
Civil Twilight 6:13 AM EST 6:33 PM EST
Nautical Twilight 5:41 AM EST 7:05 PM EST
Astronomical Twilight 5:09 AM EST 7:37 PM EST
Moon 8:24 AM EST (3/4) 10:13 PM EST (3/4)
Length of Visible Light 12h 20m
Length of Day
11h 25m
Waxing Crescent, 14% of the Moon is Illuminated
Mar 4
Waxing Crescent
Mar 8
First Quarter
Mar 16
Full
Mar 23
Last Quarter
Mar 30
New

Hourly Weather History & Observations

Time (EST) Temp. Windchill Dew Point Humidity Pressure Visibility Wind Dir Wind Speed Gust Speed Precip Events Conditions
12:15 AM 14.4 °F - -11.7 °F 31% 30.29 in 10.0 mi Calm Calm - N/A   Clear
12:35 AM 11.8 °F - -9.6 °F 38% 30.29 in 10.0 mi Calm Calm - N/A   Clear
1:00 AM 11.5 °F - -8.1 °F 41% 30.29 in 10.0 mi Calm Calm - N/A   Clear
1:15 AM 11.8 °F - -8.3 °F 40% 30.29 in 10.0 mi Calm Calm - N/A   Clear
1:35 AM 11.8 °F 5.7 °F -8.0 °F 41% 30.30 in 10.0 mi North 3.5 mph - N/A   Clear
1:55 AM 11.7 °F 3.7 °F -8.0 °F 41% 30.29 in 10.0 mi NNE 4.6 mph - N/A   Clear
2:15 AM 10.6 °F - -7.8 °F 44% 30.29 in 10.0 mi Calm Calm - N/A   Clear
2:35 AM 8.8 °F - -5.6 °F 52% 30.29 in 10.0 mi Calm Calm - N/A   Clear
2:55 AM 9.3 °F - -5.4 °F 51% 30.29 in 10.0 mi Calm Calm - N/A   Clear
3:15 AM 9.5 °F - -5.8 °F 50% 30.29 in 10.0 mi Calm Calm - N/A   Clear
3:35 AM 9.5 °F - -6.2 °F 49% 30.29 in 10.0 mi Calm Calm - N/A   Clear
3:55 AM 6.8 °F - -4.5 °F 60% 30.29 in 10.0 mi Calm Calm - N/A   Clear
4:15 AM 7.7 °F 1.0 °F -4.9 °F 56% 30.28 in 10.0 mi NE 3.5 mph - N/A   Clear
4:35 AM 8.2 °F 1.6 °F -4.9 °F 55% 30.30 in 10.0 mi North 3.5 mph - N/A   Clear
4:55 AM 8.6 °F 0.1 °F -4.5 °F 55% 30.31 in 10.0 mi North 4.6 mph - N/A   Clear
5:15 AM 8.4 °F 1.8 °F -4.2 °F 57% 30.31 in 10.0 mi North 3.5 mph - N/A   Clear
5:40 AM 6.6 °F - -4.0 °F 62% 30.31 in 10.0 mi Calm Calm - N/A   Clear
5:53 AM 6.8 °F - -4.0 °F 61% 30.31 in 10.0 mi Calm Calm - N/A   Clear
5:55 AM 6.3 °F - -3.1 °F 65% 30.31 in 10.0 mi Calm Calm - N/A   Clear
6:15 AM 6.8 °F - -3.5 °F 63% 30.31 in 10.0 mi Calm Calm - N/A   Clear
6:35 AM 7.0 °F - -2.7 °F 64% 30.31 in 10.0 mi Calm Calm - N/A   Clear
6:53 AM 6.8 °F - -4.0 °F 61% 30.31 in 10.0 mi Calm Calm - N/A   Clear
7:53 AM 8.6 °F - -5.8 °F 52% 30.33 in 10.0 mi Calm Calm - N/A   Clear
8:53 AM 10.4 °F - -4.0 °F 52% 30.34 in 10.0 mi Calm Calm - N/A   Clear
9:53 AM 15.8 °F - -5.8 °F 38% 30.33 in 10.0 mi Calm Calm - N/A   Clear
10:53 AM 21.2 °F - -7.6 °F 28% 30.29 in 10.0 mi Calm Calm - N/A   Scattered Clouds
11:53 AM 23.0 °F - -11.2 °F 22% 30.27 in 10.0 mi Calm Calm - N/A   Clear
12:53 PM 26.6 °F - -13.0 °F 17% 30.25 in 10.0 mi Calm Calm - N/A   Clear
1:53 PM 28.4 °F 22.2 °F -13.0 °F 16% 30.21 in 10.0 mi SSW 5.8 mph - N/A   Clear
2:53 PM 30.2 °F 24.3 °F -13.0 °F 15% 30.18 in 10.0 mi SSW 5.8 mph - N/A   Clear
3:53 PM 32.0 °F 24.2 °F -9.4 °F 17% 30.16 in 10.0 mi South 9.2 mph - N/A   Clear
4:53 PM 32.0 °F 27.5 °F -5.8 °F 20% 30.15 in 10.0 mi South 4.6 mph - N/A   Mostly Cloudy
5:53 PM 30.2 °F 25.4 °F -4.0 °F 23% 30.15 in 10.0 mi SW 4.6 mph - N/A   Scattered Clouds
6:53 PM 30.2 °F - -4.0 °F 23% 30.15 in 10.0 mi Calm Calm - N/A   Mostly Cloudy
7:53 PM 28.4 °F - -2.2 °F 27% 30.16 in 10.0 mi Calm Calm - N/A   Scattered Clouds
8:53 PM 26.6 °F - -4.0 °F 26% 30.15 in 10.0 mi Calm Calm - N/A   Overcast
9:15 PM 27.9 °F - -3.5 °F 26% 30.15 in 10.0 mi Calm Calm - N/A   Overcast
9:35 PM 26.8 °F - 4.1 °F 38% 30.15 in 10.0 mi Calm Calm - N/A   Overcast
9:55 PM 28.2 °F 24.4 °F -0.2 °F 29% 30.15 in 10.0 mi SW 3.5 mph - N/A   Overcast
10:15 PM 27.3 °F - 2.5 °F 35% 30.15 in 10.0 mi Calm Calm - N/A   Overcast
10:35 PM 27.7 °F 23.8 °F 3.7 °F 36% 30.15 in 10.0 mi SW 3.5 mph - N/A   Overcast
10:55 PM 27.5 °F 23.6 °F 4.8 °F 38% 30.14 in 10.0 mi SSW 3.5 mph - N/A   Overcast
11:15 PM 27.9 °F 24.0 °F 1.2 °F 32% 30.14 in 10.0 mi WSW 3.5 mph - N/A   Overcast
11:35 PM 27.7 °F - 6.1 °F 40% 30.14 in 10.0 mi Calm Calm - N/A   Overcast
11:55 PM 28.0 °F 24.2 °F 5.2 °F 38% 30.15 in 10.0 mi WSW 3.5 mph - N/A   Overcast